This is the latest recevied weather packets stored in our database for station/object K7SPS-10. If no packets are shown the sender has not sent any weather packets the latest 10 day(s).
| Time | Temp. | Humidity | Pressure | Rain* | Wind** | Luminosity | Snow |
|---|---|---|---|---|---|---|---|
| 1777597532 | 21.67° C | 27% | 1018.3 hPa | 0 mm | - | 134 W/m² | - |
| 1777597229 | 22.22° C | 28% | 1018.4 hPa | 0 mm | - | 143 W/m² | - |
| 1777596924 | 22.22° C | 28% | 1018.3 hPa | 0 mm | - | 158 W/m² | - |
| 1777596621 | 21.67° C | 28% | 1018.5 hPa | 0 mm | - | 172 W/m² | - |
| 1777596318 | 21.67° C | 28% | 1018.4 hPa | 0 mm | - | 186 W/m² | - |
| 1777596016 | 21.67° C | 28% | 1018.5 hPa | 0 mm | - | 201 W/m² | - |
| 1777595710 | 22.22° C | 29% | 1018.4 hPa | 0 mm | - | 212 W/m² | - |
| 1777595406 | 21.67° C | 29% | 1018.4 hPa | 0 mm | - | 226 W/m² | - |
| 1777595103 | 21.67° C | 31% | 1018.5 hPa | 0 mm | - | 247 W/m² | - |
| 1777594799 | 21.67° C | 30% | 1018.6 hPa | 0 mm | - | 267 W/m² | - |
| 1777594495 | 21.67° C | 31% | 1018.5 hPa | 0 mm | - | 281 W/m² | - |
| 1777594190 | 22.22° C | 30% | 1018.5 hPa | 0 mm | - | 298 W/m² | - |
| 1777593887 | 21.67° C | 30% | 1018.5 hPa | 0 mm | - | 312 W/m² | - |
| 1777593584 | 21.11° C | 31% | 1018.6 hPa | 0 mm | - | 328 W/m² | - |
| 1777593284 | 22.22° C | 30% | 1018.4 hPa | 0 mm | - | 344 W/m² | - |
| 1777592979 | 21.67° C | 31% | 1018.6 hPa | 0 mm | - | 362 W/m² | - |
| 1777592674 | 21.11° C | 31% | 1019.1 hPa | 0 mm | - | 377 W/m² | - |
| 1777592370 | 21.11° C | 32% | 1018.5 hPa | 0 mm | - | 389 W/m² | - |
| 1777592065 | 21.67° C | 33% | 1019.1 hPa | 0 mm | - | 399 W/m² | - |
| 1777591763 | 21.67° C | 32% | 1019 hPa | 0 mm | - | 411 W/m² | - |
| 1777591458 | 21.67° C | 33% | 1018.6 hPa | 0 mm | - | 430 W/m² | - |
| 1777591155 | 21.67° C | 33% | 1019.1 hPa | 0 mm | - | 449 W/m² | - |
| 1777590849 | 21.67° C | 33% | 1018.9 hPa | 0 mm | - | 464 W/m² | - |
| 1777590546 | 21.67° C | 33% | 1019.1 hPa | 0 mm | - | 475 W/m² | - |
| 1777590242 | 21.67° C | 34% | 1019.1 hPa | 0 mm | - | 492 W/m² | - |
* Rain latest hour (hover to see other rain measurements)
** Current wind speed in m/s (hover to see current wind gust speed)